EW9957 Weather Reports


Display with metric or nautical units.
time (UTC)temp
F
wind
direction
speed
MPH
gust
MPH
rain 1hr
in
rain 24hr
in
rain mn
in
humidity
%
barometer
mb
20260904223522 77 34 7.0 11.0 0.00 0.00 0.00 52 1014.1
20260904223110 77 34 4.0 11.0 0.00 0.00 0.00 54 1014.2
20260904223027 77 34 4.0 11.0 0.00 0.00 0.00 54 1014.2
20260904222521 76 36 7.0 15.0 0.00 0.00 0.00 53 1014.3
20260904222018 76 35 8.0 15.0 0.00 0.00 0.00 54 1014.3
20260904221539 76 35 8.0 16.0 0.00 0.00 0.00 54 1014.3
20260904221108 77 35 8.0 16.0 0.00 0.00 0.00 53 1014.3
20260904221026 77 35 8.0 16.0 0.00 0.00 0.00 53 1014.3
20260904220559 76 35 9.0 14.0 0.00 0.00 0.00 55 1014.3
20260904220017 77 35 9.0 15.0 0.00 0.00 0.00 52 1014.3
20260904215611 76 36 6.0 15.0 0.00 0.00 0.00 57 1014.2
20260904215042 76 37 8.0 14.0 0.00 0.00 0.00 55 1014.3
20260904214604 77 34 8.0 13.0 0.00 0.00 0.00 56 1014.3
20260904214521 77 34 8.0 13.0 0.00 0.00 0.00 56 1014.3
20260904214055 76 35 8.0 13.0 0.00 0.00 0.00 54 1014.4
20260904213527 76 35 8.0 13.0 0.00 0.00 0.00 54 1014.4
20260904213047 77 35 7.0 13.0 0.00 0.00 0.00 55 1014.4
20260904212539 78 34 6.0 13.0 0.00 0.00 0.00 55 1014.4
20260904212032 77 35 6.0 13.0 0.00 0.00 0.00 57 1014.4
20260904211513 77 35 7.0 13.0 0.00 0.00 0.00 56 1014.4
20260904211026 76 34 8.0 12.0 0.00 0.00 0.00 59 1014.4
20260904210601 77 34 7.0 12.0 0.00 0.00 0.00 59 1014.5
20260904210110 76 36 7.0 12.0 0.00 0.00 0.00 59 1014.5
20260904205602 76 35 7.0 11.0 0.00 0.00 0.00 60 1014.6
20260904205520 76 35 7.0 11.0 0.00 0.00 0.00 60 1014.6
20260904205113 76 35 8.0 12.0 0.00 0.00 0.00 59 1014.5
20260904204555 76 36 6.0 11.0 0.00 0.00 0.00 60 1014.5
20260904204025 77 34 7.0 10.0 0.00 0.00 0.00 62 1014.5
20260904203537 75 35 6.0 12.0 0.00 0.00 0.00 62 1014.6
20260904203036 76 35 6.0 12.0 0.00 0.00 0.00 61 1014.6
20260904202529 76 35 9.0 13.0 0.00 0.00 0.00 61 1014.6
20260904202041 76 34 8.0 13.0 0.00 0.00 0.00 62 1014.6
20260904201612 76 35 7.0 13.0 0.00 0.00 0.00 61 1014.6
20260904201529 76 35 7.0 13.0 0.00 0.00 0.00 61 1014.6
20260904201043 77 38 8.0 13.0 0.00 0.00 0.00 60 1014.6
20260904200536 76 36 8.0 12.0 0.00 0.00 0.00 61 1014.6
20260904200053 76 34 8.0 12.0 0.00 0.00 0.00 61 1014.6
20260904195604 76 35 6.0 15.0 0.00 0.00 0.00 60 1014.7
20260904195037 76 34 8.0 15.0 0.00 0.00 0.00 60 1014.7
20260904194537 77 35 6.0 10.0 0.00 0.00 0.00 60 1014.7
20260904194029 76 35 6.0 11.0 0.00 0.00 0.00 60 1014.7
20260904193522 75 35 7.0 11.0 0.00 0.00 0.00 61 1014.8
20260904193105 76 35 6.0 11.0 0.00 0.00 0.00 59 1014.8
20260904192556 77 34 7.0 11.0 0.00 0.00 0.00 60 1014.8
20260904192047 76 35 3.0 13.0 0.00 0.00 0.00 60 1014.9
20260904191605 76 35 9.0 13.0 0.00 0.00 0.00 60 1014.9
20260904191041 77 35 4.0 10.0 0.00 0.00 0.00 59 1015.0
20260904190533 75 35 5.0 9.0 0.00 0.00 0.00 60 1015.1
20260904190048 76 37 5.0 9.0 0.00 0.00 0.00 59 1015.2
20260904185602 76 34 5.0 13.0 0.00 0.00 0.00 59 1015.3
20260904185016 76 36 6.0 13.0 0.00 0.00 0.00 59 1015.3
20260904184555 76 38 5.0 13.0 0.00 0.00 0.00 58 1015.3
20260904184048 75 35 5.0 10.0 0.00 0.00 0.00 60 1015.4
20260904183601 76 35 6.0 10.0 0.00 0.00 0.00 59 1015.3
20260904183112 75 38 4.0 10.0 0.00 0.00 0.00 59 1015.4
20260904183030 75 38 4.0 10.0 0.00 0.00 0.00 59 1015.4
20260904182523 75 36 7.0 10.0 0.00 0.00 0.00 59 1015.4
20260904182057 74 38 2.0 7.0 0.00 0.00 0.00 60 1015.4
20260904181514 75 38 1.0 7.0 0.00 0.00 0.00 59 1015.4
20260904181028 75 35 4.0 8.0 0.00 0.00 0.00 60 1015.4
20260904180522 75 32 4.0 8.0 0.00 0.00 0.00 61 1015.4
20260904180044 75 35 1.0 9.0 0.00 0.00 0.00 62 1015.4
20260904175521 73 37 7.0 9.0 0.00 0.00 0.00 63 1015.5
20260904175036 73 35 4.0 8.0 0.00 0.00 0.00 64 1015.6
20260904174516 74 34 2.0 5.0 0.00 0.00 0.00 65 1015.6
20260904174049 73 31 2.0 7.0 0.00 0.00 0.00 65 1015.5
20260904173541 73 35 2.0 5.0 0.00 0.00 0.00 65 1015.5
20260904173020 72 37 2.0 8.0 0.00 0.00 0.00 67 1015.6
20260904172554 72 34 4.0 7.0 0.00 0.00 0.00 66 1015.7
20260904172045 72 36 3.0 9.0 0.00 0.00 0.00 67 1015.8
20260904171613 72 38 6.0 9.0 0.00 0.00 0.00 67 1015.7
20260904171104 72 34 1.0 3.0 0.00 0.00 0.00 67 1015.6
20260904170516 72 35 1.0 3.0 0.00 0.00 0.00 68 1015.7
20260904170038 70 34 1.0 5.0 0.00 0.00 0.00 70 1015.8
20260904165610 70 35 2.0 9.0 0.00 0.00 0.00 71 1015.7
20260904165528 70 35 2.0 9.0 0.00 0.00 0.00 71 1015.7
20260904165041 70 34 4.0 10.0 0.00 0.00 0.00 71 1015.6
20260904164520 70 36 1.0 2.0 0.00 0.00 0.00 72 1015.6
20260904164055 70 35 0.0 5.0 0.00 0.00 0.00 72 1015.5
20260904163548 69 35 1.0 5.0 0.00 0.00 0.00 73 1015.4
20260904163047 69 35 1.0 4.0 0.00 0.00 0.00 73 1015.4
20260904162519 69 34 1.0 6.0 0.00 0.00 0.00 75 1015.4
20260904162113 68 35 3.0 6.0 0.00 0.00 0.00 75 1015.4
20260904161531 68 34 1.0 6.0 0.00 0.00 0.00 75 1015.3
20260904161044 68 36 3.0 6.0 0.00 0.00 0.00 75 1015.2
20260904160537 67 35 2.0 4.0 0.00 0.00 0.00 76 1015.2
20260904160037 67 35 2.0 5.0 0.00 0.00 0.00 77 1015.3
20260904155610 66 36 1.0 5.0 0.00 0.00 0.00 78 1015.1
20260904155022 66 36 2.0 5.0 0.00 0.00 0.00 78 1015.0
20260904154605 66 37 3.0 4.0 0.00 0.00 0.00 79 1015.0
20260904154015 66 35 2.0 4.0 0.00 0.00 0.00 79 1014.9
20260904153550 66 34 2.0 4.0 0.00 0.00 0.00 79 1014.9
20260904153050 66 35 1.0 4.0 0.00 0.00 0.00 79 1015.0
20260904152544 66 34 1.0 7.0 0.00 0.00 0.00 80 1015.0
20260904152058 66 36 3.0 7.0 0.00 0.00 0.00 80 1015.0
20260904152015 66 36 3.0 7.0 0.00 0.00 0.00 80 1015.0
20260904151536 65 35 3.0 8.0 0.00 0.00 0.00 81 1014.9
20260904151109 65 35 4.0 8.0 0.00 0.00 0.00 80 1014.9
20260904151026 65 35 4.0 8.0 0.00 0.00 0.00 80 1014.9
20260904150600 65 35 5.0 8.0 0.00 0.00 0.00 81 1015.0
20260904150518 65 35 5.0 8.0 0.00 0.00 0.00 81 1015.0
20260904150035 65 35 4.0 8.0 0.00 0.00 0.00 81 1015.0
20260904145527 65 37 2.0 5.0 0.00 0.00 0.00 82 1015.0
20260904145020 64 34 3.0 6.0 0.00 0.00 0.00 82 1014.9
20260904144603 64 34 2.0 6.0 0.00 0.00 0.00 82 1014.9
20260904144014 64 36 1.0 4.0 0.00 0.00 0.00 83 1014.8
20260904143528 64 36 2.0 4.0 0.00 0.00 0.00 83 1014.8
20260904143027 64 35 3.0 6.0 0.00 0.00 0.00 83 1014.7
20260904142521 64 32 2.0 6.0 0.00 0.00 0.00 84 1014.8
20260904142115 63 35 2.0 6.0 0.00 0.00 0.00 84 1014.7
20260904141553 63 35 2.0 6.0 0.00 0.00 0.00 84 1014.7
20260904141106 63 34 2.0 6.0 0.00 0.00 0.00 84 1014.6
20260904141023 63 34 2.0 6.0 0.00 0.00 0.00 84 1014.6
20260904140518 63 34 2.0 6.0 0.00 0.00 0.00 85 1014.6
20260904140111 63 35 1.0 3.0 0.00 0.00 0.00 85 1014.6
20260904140028 63 35 1.0 3.0 0.00 0.00 0.00 85 1014.6
20260904135541 63 35 1.0 3.0 0.00 0.00 0.00 85 1014.5
20260904135113 63 34 1.0 3.0 0.00 0.00 0.00 85 1014.4
20260904134608 63 37 1.0 3.0 0.00 0.00 0.00 85 1014.3
20260904134526 63 37 1.0 3.0 0.00 0.00 0.00 85 1014.3
20260904134041 63 34 1.0 3.0 0.00 0.00 0.00 85 1014.3
20260904133553 63 35 2.0 3.0 0.00 0.00 0.00 85 1014.3
20260904133052 63 34 1.0 3.0 0.00 0.00 0.00 85 1014.2
20260904132545 63 34 1.0 4.0 0.00 0.00 0.00 85 1014.1
20260904132021 63 34 2.0 4.0 0.00 0.00 0.00 85 1014.2
20260904131559 63 36 3.0 6.0 0.00 0.00 0.00 85 1014.2
20260904131516 63 36 3.0 6.0 0.00 0.00 0.00 85 1014.2
20260904131111 63 35 2.0 6.0 0.00 0.00 0.00 84 1014.2
20260904131028 63 35 2.0 6.0 0.00 0.00 0.00 84 1014.2
20260904130522 63 36 2.0 4.0 0.00 0.00 0.00 84 1014.1
20260904130044 64 34 1.0 3.0 0.00 0.00 0.00 84 1014.1
20260904125538 64 35 1.0 3.0 0.00 0.00 0.00 84 1014.1
20260904125111 64 32 2.0 3.0 0.00 0.00 0.00 84 1014.2
20260904124526 64 34 1.0 6.0 0.00 0.00 0.00 84 1014.1
20260904124020 64 34 2.0 6.0 0.00 0.00 0.00 84 1014.0
20260904123533 64 35 1.0 4.0 0.00 0.00 0.00 84 1014.0
20260904123031 64 35 1.0 4.0 0.00 0.00 0.00 84 1014.0
20260904122546 64 38 3.0 4.0 0.00 0.00 0.00 84 1014.0
20260904122039 64 35 1.0 3.0 0.00 0.00 0.00 84 1014.1
20260904121519 64 35 1.0 4.0 0.00 0.00 0.00 84 1014.0
20260904121111 64 35 3.0 7.0 0.00 0.00 0.00 84 1014.0
20260904120603 64 35 4.0 7.0 0.00 0.00 0.00 84 1014.0
20260904120520 64 35 4.0 7.0 0.00 0.00 0.00 84 1014.0
20260904120113 64 34 3.0 6.0 0.00 0.00 0.00 84 1014.1
20260904115604 64 38 3.0 5.0 0.00 0.00 0.00 84 1014.1
20260904115522 64 38 3.0 5.0 0.00 0.00 0.00 84 1014.1
20260904115115 64 37 3.0 5.0 0.00 0.00 0.00 84 1014.0
20260904114532 65 34 3.0 6.0 0.00 0.00 0.00 84 1014.2
20260904114047 65 35 4.0 7.0 0.00 0.00 0.00 84 1014.2
20260904113559 65 35 2.0 5.0 0.00 0.00 0.00 84 1014.2
20260904113018 65 34 2.0 4.0 0.00 0.00 0.00 84 1014.2
20260904112551 65 35 1.0 2.0 0.00 0.00 0.00 84 1014.2
20260904112044 64 34 0.0 6.0 0.00 0.00 0.00 84 1014.2
20260904111607 64 35 2.0 6.0 0.00 0.00 0.00 84 1014.2
20260904111039 64 34 2.0 5.0 0.00 0.00 0.00 85 1014.2
20260904110613 65 36 2.0 4.0 0.00 0.00 0.00 85 1014.2
20260904110530 65 36 2.0 4.0 0.00 0.00 0.00 85 1014.2
20260904110028 64 37 2.0 2.0 0.00 0.00 0.00 85 1014.3
20260904105543 64 35 1.0 6.0 0.00 0.00 0.00 85 1014.2
20260904105036 64 35 3.0 6.0 0.00 0.00 0.00 85 1014.1
20260904104537 64 37 0.0 4.0 0.00 0.00 0.00 86 1014.1
20260904104029 64 35 3.0 4.0 0.00 0.00 0.00 86 1014.1
20260904103542 64 37 2.0 7.0 0.00 0.00 0.00 86 1014.1
20260904103113 64 34 2.0 7.0 0.00 0.00 0.00 86 1014.0
20260904102524 64 37 3.0 5.0 0.00 0.00 0.00 86 1013.9
20260904102037 64 32 2.0 3.0 0.00 0.00 0.00 87 1013.9
20260904101557 64 32 0.0 2.0 0.00 0.00 0.00 87 1013.8
20260904101514 64 32 0.0 2.0 0.00 0.00 0.00 87 1013.8
20260904101028 64 35 1.0 3.0 0.00 0.00 0.00 87 1013.8
20260904100541 64 35 1.0 3.0 0.00 0.00 0.00 87 1013.8
20260904100041 64 32 2.0 4.0 0.00 0.00 0.00 87 1014.0
20260904095533 64 32 1.0 6.0 0.00 0.00 0.00 87 1014.0
20260904095107 63 35 3.0 6.0 0.00 0.00 0.00 87 1014.0
20260904094545 63 35 0.0 1.0 0.00 0.00 0.00 87 1013.9
20260904094037 63 36 0.0 0.0 0.00 0.00 0.00 87 1013.9
20260904093606 63 36 0.0 2.0 0.00 0.00 0.00 86 1013.8
20260904093523 63 36 0.0 2.0 0.00 0.00 0.00 86 1013.8
20260904093043 63 35 0.0 2.0 0.00 0.00 0.00 87 1013.9
20260904092515 63 36 1.0 2.0 0.00 0.00 0.00 87 1013.9
20260904092048 63 35 1.0 2.0 0.00 0.00 0.00 87 1013.9
20260904091547 63 35 1.0 2.0 0.00 0.00 0.00 87 1014.0
20260904091019 63 37 0.0 0.0 0.00 0.00 0.00 88 1013.9
20260904090515 63 36 0.0 0.0 0.00 0.00 0.00 88 1013.9
20260904090029 63 36 0.0 0.0 0.00 0.00 0.00 88 1013.9
20260904085604 63 34 0.0 0.0 0.00 0.00 0.00 88 1014.0
20260904085521 63 34 0.0 0.0 0.00 0.00 0.00 88 1014.0
20260904085056 63 34 0.0 0.0 0.00 0.00 0.00 88 1014.0
20260904085014 63 34 0.0 0.0 0.00 0.00 0.00 88 1014.0
20260904084557 63 36 0.0 0.0 0.00 0.00 0.00 88 1014.0
20260904084514 63 36 0.0 0.0 0.00 0.00 0.00 88 1014.0
20260904084108 63 35 0.0 0.0 0.00 0.00 0.00 87 1014.0
20260904083559 63 36 0.0 0.0 0.00 0.00 0.00 88 1014.1
20260904083516 63 36 0.0 0.0 0.00 0.00 0.00 88 1014.1
20260904083016 63 35 0.0 0.0 0.00 0.00 0.00 88 1014.1
20260904082611 63 32 0.0 0.0 0.00 0.00 0.00 88 1014.1
20260904082528 63 32 0.0 0.0 0.00 0.00 0.00 88 1014.1
20260904082041 63 37 0.0 0.0 0.00 0.00 0.00 88 1014.2
20260904081613 62 34 0.0 0.0 0.00 0.00 0.00 88 1014.2
20260904081045 62 36 0.0 0.0 0.00 0.00 0.00 87 1014.2
20260904080558 62 35 0.0 0.0 0.00 0.00 0.00 87 1014.3
20260904080036 63 35 0.0 0.0 0.00 0.00 0.00 87 1014.3
20260904075604 63 38 0.0 0.0 0.00 0.00 0.00 88 1014.3
20260904075521 63 38 0.0 0.0 0.00 0.00 0.00 88 1014.3
20260904075035 62 36 0.0 0.0 0.00 0.00 0.00 87 1014.3
20260904074533 63 35 0.0 0.0 0.00 0.00 0.00 87 1014.3
20260904074026 63 38 0.0 0.0 0.00 0.00 0.00 86 1014.2
20260904073523 63 34 0.0 0.0 0.00 0.00 0.00 86 1014.3
20260904073023 62 34 0.0 0.0 0.00 0.00 0.00 86 1014.3
20260904072517 63 32 0.0 0.0 0.00 0.00 0.00 86 1014.3
20260904072110 63 35 0.0 0.0 0.00 0.00 0.00 87 1014.3
20260904071607 63 35 0.0 0.0 0.00 0.00 0.00 87 1014.3
20260904071022 63 35 0.0 0.0 0.00 0.00 0.00 87 1014.3
20260904070535 62 38 0.0 0.0 0.00 0.00 0.00 86 1014.4
20260904070053 62 35 0.0 0.0 0.00 0.00 0.00 86 1014.3
20260904065525 63 35 0.0 0.0 0.00 0.00 0.00 85 1014.3
20260904065019 63 37 0.0 0.0 0.00 0.00 0.00 84 1014.4
20260904064519 64 37 0.0 0.0 0.00 0.00 0.00 85 1014.3
20260904064032 64 36 0.0 0.0 0.00 0.00 0.00 86 1014.3
20260904063607 64 36 0.0 0.0 0.00 0.00 0.00 86 1014.3
20260904063525 64 36 0.0 0.0 0.00 0.00 0.00 86 1014.3
20260904063045 64 37 0.0 0.0 0.00 0.00 0.00 85 1014.3
20260904062536 64 35 0.0 0.0 0.00 0.00 0.00 86 1014.2
20260904062110 64 36 0.0 2.0 0.00 0.00 0.00 86 1014.3
20260904062027 64 36 0.0 2.0 0.00 0.00 0.00 86 1014.3
20260904061605 64 34 0.0 2.0 0.00 0.00 0.00 86 1014.2
20260904061021 63 37 0.0 0.0 0.00 0.00 0.00 85 1014.2
20260904060515 64 35 0.0 0.0 0.00 0.00 0.00 85 1014.2
20260904060015 64 38 0.0 0.0 0.00 0.00 0.00 85 1014.2
20260904055528 64 35 0.0 2.0 0.00 0.00 0.00 85 1014.2
20260904055021 64 38 0.0 0.0 0.00 0.00 0.00 85 1014.2
20260904054541 64 36 0.0 0.0 0.00 0.00 0.00 84 1014.1
20260904054114 64 37 0.0 0.0 0.00 0.00 0.00 84 1014.2
20260904054032 64 37 0.0 0.0 0.00 0.00 0.00 84 1014.2
20260904053525 64 35 0.0 2.0 0.00 0.00 0.00 83 1014.1
20260904053045 65 35 0.0 2.0 0.00 0.00 0.00 84 1014.1
20260904052558 65 32 1.0 3.0 0.00 0.00 0.00 84 1014.2
20260904052515 65 32 1.0 3.0 0.00 0.00 0.00 84 1014.2
20260904052029 65 36 2.0 4.0 0.00 0.00 0.00 84 1014.3
20260904051607 65 32 1.0 4.0 0.00 0.00 0.00 84 1014.3
20260904051043 65 35 1.0 4.0 0.00 0.00 0.00 84 1014.3
20260904050536 65 35 3.0 4.0 0.00 0.00 0.00 84 1014.3
20260904050033 65 35 3.0 4.0 0.00 0.00 0.00 84 1014.3
20260904045526 65 35 2.0 4.0 0.00 0.00 0.00 83 1014.3
20260904045041 65 35 2.0 4.0 0.00 0.00 0.00 83 1014.3
20260904044613 65 35 3.0 4.0 0.00 0.00 0.00 83 1014.3
20260904044105 66 35 2.0 4.0 0.00 0.00 0.00 83 1014.3
20260904044022 66 35 2.0 4.0 0.00 0.00 0.00 83 1014.3
20260904043612 66 35 2.0 5.0 0.00 0.00 0.00 83 1014.3
20260904043530 66 35 2.0 5.0 0.00 0.00 0.00 83 1014.3
20260904043029 66 35 3.0 5.0 0.00 0.00 0.00 83 1014.3
20260904042527 66 34 2.0 4.0 0.00 0.00 0.00 83 1014.3
20260904042101 66 35 2.0 5.0 0.00 0.00 0.00 83 1014.3
20260904042018 66 35 2.0 5.0 0.00 0.00 0.00 83 1014.3
20260904041556 66 35 3.0 5.0 0.00 0.00 0.00 83 1014.3
20260904041514 66 35 3.0 5.0 0.00 0.00 0.00 83 1014.3
20260904041107 66 36 2.0 5.0 0.00 0.00 0.00 82 1014.3
20260904040558 66 38 4.0 5.0 0.00 0.00 0.00 82 1014.3
20260904040017 66 34 2.0 5.0 0.00 0.00 0.00 82 1014.3
20260904035531 66 37 3.0 5.0 0.00 0.00 0.00 82 1014.3
20260904035104 66 35 3.0 4.0 0.00 0.00 0.00 82 1014.2
20260904035022 66 35 3.0 4.0 0.00 0.00 0.00 82 1014.2
20260904034543 66 32 2.0 4.0 0.00 0.00 0.00 82 1014.0
20260904034055 66 35 1.0 4.0 0.00 0.00 0.00 82 1014.0
20260904033607 66 35 2.0 5.0 0.00 0.00 0.00 82 1013.9
20260904033107 66 37 3.0 5.0 0.00 0.00 0.00 81 1013.9
20260904032518 66 35 2.0 4.0 0.00 0.00 0.00 82 1013.8
20260904032111 66 38 3.0 4.0 0.00 0.00 0.00 81 1013.8
20260904031527 66 36 3.0 6.0 0.00 0.00 0.00 81 1013.7
20260904031020 67 38 4.0 6.0 0.00 0.00 0.00 81 1013.7
20260904030514 67 38 2.0 7.0 0.00 0.00 0.00 80 1013.6
20260904030015 67 34 4.0 7.0 0.00 0.00 0.00 80 1013.7
20260904025528 67 35 3.0 7.0 0.00 0.00 0.00 80 1013.7
20260904025103 67 34 4.0 7.0 0.00 0.00 0.00 79 1013.7
20260904025020 67 34 4.0 7.0 0.00 0.00 0.00 79 1013.7
20260904024521 67 35 4.0 6.0 0.00 0.00 0.00 79 1013.7
20260904024035 67 35 3.0 6.0 0.00 0.00 0.00 78 1013.6
20260904023547 68 35 5.0 6.0 0.00 0.00 0.00 78 1013.7
20260904023047 68 35 3.0 5.0 0.00 0.00 0.00 79 1013.6
20260904022539 68 37 4.0 8.0 0.00 0.00 0.00 78 1013.6
20260904022111 68 35 5.0 8.0 0.00 0.00 0.00 78 1013.6
20260904021527 68 35 4.0 7.0 0.00 0.00 0.00 78 1013.6
20260904021100 68 35 3.0 7.0 0.00 0.00 0.00 77 1013.6
20260904021018 68 35 3.0 7.0 0.00 0.00 0.00 77 1013.6
20260904020553 68 34 3.0 7.0 0.00 0.00 0.00 77 1013.6
20260904020032 69 36 4.0 7.0 0.00 0.00 0.00 76 1013.7
20260904015606 68 35 3.0 8.0 0.00 0.00 0.00 77 1013.7
20260904015524 68 35 3.0 8.0 0.00 0.00 0.00 77 1013.7
20260904015057 68 37 5.0 9.0 0.00 0.00 0.00 76 1013.8
20260904014555 68 34 5.0 9.0 0.00 0.00 0.00 76 1013.7
20260904014049 69 36 5.0 9.0 0.00 0.00 0.00 76 1013.8
20260904013521 69 34 6.0 9.0 0.00 0.00 0.00 74 1013.8
20260904013021 70 35 5.0 10.0 0.00 0.00 0.00 75 1013.8
20260904012533 69 34 5.0 11.0 0.00 0.00 0.00 74 1013.8
20260904012046 70 35 6.0 11.0 0.00 0.00 0.00 74 1013.8
20260904011608 70 34 6.0 9.0 0.00 0.00 0.00 74 1013.9
20260904011526 70 34 6.0 9.0 0.00 0.00 0.00 74 1013.9
20260904011019 70 32 6.0 10.0 0.00 0.00 0.00 74 1013.9
20260904010532 70 34 7.0 10.0 0.00 0.00 0.00 73 1014.0
20260904010032 70 35 6.0 12.0 0.00 0.00 0.00 73 1013.9
20260904005546 70 35 7.0 9.0 0.00 0.00 0.00 71 1013.9
20260904005018 71 35 7.0 12.0 0.00 0.00 0.00 71 1013.8
20260904004539 70 35 7.0 11.0 0.00 0.00 0.00 71 1013.8
20260904004031 71 35 8.0 11.0 0.00 0.00 0.00 70 1013.8
20260904003605 71 38 6.0 12.0 0.00 0.00 0.00 69 1013.8
20260904003043 72 35 8.0 12.0 0.00 0.00 0.00 69 1013.8
20260904002535 72 35 8.0 14.0 0.00 0.00 0.00 69 1013.8
20260904002027 72 35 8.0 15.0 0.00 0.00 0.00 70 1013.8
20260904001610 72 34 9.0 15.0 0.00 0.00 0.00 70 1013.9
20260904001528 72 34 9.0 15.0 0.00 0.00 0.00 70 1013.9
20260904001020 71 34 7.0 16.0 0.00 0.00 0.00 72 1014.0
20260904000514 71 36 7.0 16.0 0.00 0.00 0.00 73 1014.0
20260904000035 72 34 8.0 15.0 0.00 0.00 0.00 72 1013.9
20260903235607 71 34 9.0 16.0 0.00 0.00 0.00 73 1013.9
20260903235113 72 35 7.0 15.0 0.00 0.00 0.00 73 1014.0
20260903234553 73 36 9.0 15.0 0.00 0.00 0.00 71 1014.0
20260903234045 72 34 10.0 15.0 0.00 0.00 0.00 72 1014.0
20260903233558 72 35 9.0 15.0 0.00 0.00 0.00 71 1013.9
20260903233515 72 35 9.0 15.0 0.00 0.00 0.00 71 1013.9
20260903233014 73 36 11.0 15.0 0.00 0.00 0.00 70 1013.9
20260903232549 73 35 10.0 15.0 0.00 0.00 0.00 70 1014.0
20260903232101 73 32 7.0 18.0 0.00 0.00 0.00 70 1014.0
20260903232018 73 32 7.0 18.0 0.00 0.00 0.00 70 1014.0
20260903231537 74 35 8.0 17.0 0.00 0.00 0.00 70 1014.2
20260903231110 73 34 10.0 19.0 0.00 0.00 0.00 68 1014.0
20260903231028 73 34 10.0 19.0 0.00 0.00 0.00 68 1014.0
20260903230541 73 35 11.0 19.0 0.00 0.00 0.00 71 1014.0
20260903225514 74 34 9.0 15.0 0.00 0.00 0.00 68 1014.1
20260903225108 74 35 9.0 14.0 0.00 0.00 0.00 68 1014.1
20260903225026 74 35 9.0 14.0 0.00 0.00 0.00 68 1014.1
20260903224524 74 32 8.0 14.0 0.00 0.00 0.00 68 1014.2
20260903224059 74 35 9.0 14.0 0.00 0.00 0.00 69 1014.2